Probability
0 0 0 0 0 0 0 0 0 0 0 0 0 0 0 0 0 0 0 0 0 0 0 0 0 0 0 0 0 0 0 0 0 0 0 0 0 0 0 0 0 0 0 0 0 0 0 0 0
0 0 0 0 0 0 0 0 0 0 0 0 0 0 0 0 0 0 0 0 0 0 0 0 0 0 0 0 0 0 0 0 0 0 0 0 0 0 0 0 0 0 0 0 0 0 0 0 0
0 0 0 0 0 0 0 0 0 0 0 0 0 0 0 0 0 0 0 0 0 0 0 0 0 0 0 0 0 0 0 0 0 0 0 0 0 0 0 0 0 0 0 0 0 0 0 0 0
0 0 0 0 0 0 0 0 0 0 0 0 0 0 0 0 0 0 0 0 0 0 0 0 0 0 0 0 0 0 0 0 0 0 0 0 0 0 0 0 0 0 0 0 0 0 0 0 0
0 0 0 0 0 0 0 0 0 0 0 0 0 0 0 0 0 0 0 0 0 0 0 0 0 0 0 0 0 0 0 0 0 0 0 0 0 0 0 0 0 0 0 0 0 0 0 0 0
0 0 0 0 0 0 0 0 0 0 0 0 0 0 0 0 0 0 0 0 0 0 0 0 0 0 0 0 0 0 0 0 0 0 0 0 0 0 0 0 0 0 0 0 0 0 0 0 0
0 0 0 0 0 0 0 0 0 0 0 0 0 0 0 0 0 0 0 0 0 0 0 0 0 0 0 0 0 0 0 0 0 0 0 0 0 0 0 0 0 0 0 0 0 0 0 0 0
0 0 0 0 0 0 0 0 0 0 0 0 0 0 0 0 0 0 0 0 0 0 0 0 0 0 0 0 0 0 0 0 0 0 0 0 0 0 0 0 0 0 0 0 0 0 0 0 0
0 0 0 0 0 0 0 0 0 0 0 0 0 0 0 0 0 0 0 0 0 0 0 0 0 0 0 0 0 0 0 0 0 0 0 0 0 0 0 0 0 0 0 0 0 0 0 0 0
0 0 0 0 0 0 0 0 0 0 0 0 0 0 0 0 0 0 0 0 0 0 0 0 0 0 0 0 0 0 0 0 0 0 0 0 0 0 0 0 0 0 0 0 0 0 0 0 0
0 0 0 0 0 0 0 0 0 0 0 0 0 0 0 0 0 0 0 0 0 0 0 0 0 0 0 0 0 0 0 0 0 0 0 0 0 0 0 0 0 0 0 0 0 0 0 0 0
0 0 0 0 0 0 0 0 0 0 0 0 0 0 0 0 0 0 0 0 0 0 0 0 0 0 0 0 0 0 0 0 0 0 0 0 0 0 0 0 0 0 0 0 0 0 0 0 0
0 0 0 0 0 0 0 0 0 0 0 0 0 0 0 0 0 0 0 0 0 0 0 0 0 0 0 0 0 0 0 0 0 0 0 0 0 0 0 0 0 0 0 0 0 0 0 0 0
0 0 0 0 0 0 0 0 0 0 0 0 0 0 0 0 0 0 0 0 0 0 0 0 0 0 0 0 0 0 0 0 0 0 0 0 0 0 0 0 0 0 0 0 0 0 0 0 0
0 0 0 0 0 0 0 0 0 0 0 0 0 0 0 0 0 0 0 0 0 0 0 0 0 0 0 0 0 0 0 0 0 0 0 0 0 0 0 0 0 0 0 0 0 0 0 0 0
0 0 0 0 0 0 0 0 0 0 0 0 0 0 0 0 0 0 0 0 0 0 0 0 0 0 0 0 0 0 0 0 0 0 0 0 0 0 0 0 0 0 0 0 0 0 0 0 0
0 0 0 0 0 0 0 0 0 0 0 0 0 0 0 0 0 0 0 0 0 0 0 0 0 0 0 0 0 0 0 0 0 0 0 0 0 0 0 0 0 0 0 0 0 0 0 0 0
0 0 0 0 0 0 0 0 0 0 0 0 0 0 0 0 0 0 0 0 0 0 0 0 0 0 0 0 0 0 0 0 0 0 0 0 0 0 0 0 0 0 0 0 0 0 0 0 0
0 0 0 0 0 0 0 0 0 0 0 0 0 0 0 0 0 0 0 0 0 0 0 0 0 0 0 0 0 0 0 0 0 0 0 0 0 0 0 0 0 0 0 0 0 0 0 0 0
0 0 0 0 0 0 0 0 0 0 0 0 0 0 0 0 0 0 0 0 0 0 0 0 0 0 0 0 0 0 0 0 0 0 0 0 0 0 0 0 0 0 0 0 0 0 0 0 0
0 0 0 0 0 0 0 0 0 0 0 0 0 0 0 0 0 0 0 0 0 0 0 0 0 0 0 0 0 0 0 0 0 0 0 0 0 0 0 0 0 0 0 0 0 0 0 0 0
0 0 0 0 0 0 0 0 0 0 0 0 0 0 0 0 0 0 0 0 0 0 0 0 0 0 0 0 0 0 0 0 0 0 0 0 0 0 0 0 0 0 0 0 0 0 0 0 0
0 0 0 0 0 0 0 0 0 0 0 0 0 0 0 0 0 0 0 0 0 0 0 0 0 0 0 0 0 0 0 0 0 0 0 0 0 0 0 0 0 0 0 0 0 0 0 0 0
0 0 0 0 0 0 0 0 0 0 0 0 0 0 0 0 0 0 0 0 0 0 0 0 0 0 0 0 0 0 0 0 0 0 0 0 0 0 0 0 0 0 0 0 0 0 0 0 0
0 0 0 0 0 0 0 0 0 0 0 0 0 0 0 0 0 0 0 0 0 0 0 0 0 0 0 0 0 0 0 0 0 0 0 0 0 0 0 0 0 0 0 0 0 0 0 0 0
0 0 0 0 0 0 0 0 0 0 0 0 0 0 0 0 0 0 0 0 0 0 0 0 0 0 0 0 0 0 0 0 0 0 0 0 0 0 0 0 0 0 0 0 0 0 0 0 0
0 0 0 0 0 0 0 0 0 0 0 0 0 0 0 0 0 0 0 0 0 0 0 0 0 0 0 0 0 0 0 0 0 0 0 0 0 0 0 0 0 0 0 0 0 0 0 0 0
0 0 0 0 0 0 0 0 0 0 0 0 0 0 0 0 0 0 0 0 0 0 0 0 0 0 0 0 0 0 0 0 0 0 0 0 0 0 0 0 0 0 0 0 0 0 0 0 0
0 0 0 0 0 0 0 0 0 0 0 0 0 0 0 0 0 0 0 0 0 0 0 0 0 0 0 0 0 0 0 0 0 0 0 0 0 0 0 0 0 0 0 0 0 0 0 0 0
0 0 0 0 0 0 0 0 0 0 0 0 0 0 0 0 0 0 0 0 0 0 0 0 0 0 0 0 0 0 0 0 0 0 0 0 0 0 0 0 0 0 0 0 0 0 0 0 0
Height
5860 5860 5860 5861 5862 5862 5861 5862 5862 5862 5863 5863 5863 5863 5864 5865 5866 5868 5867 5866 5867 5867 5867 5868 5868 5868 5868 5868 5868 5867 5867 5867 5866 5866 5865 5865 5864 5864 5864 5864 5864 5864 5864 5863 5863 5863 5863 5863 5863
5862 5861 5862 5862 5862 5861 5862 5862 5862 5863 5864 5864 5864 5864 5864 5864 5864 5865 5865 5865 5865 5866 5866 5866 5866 5866 5866 5865 5865 5865 5865 5864 5864 5863 5863 5862 5862 5861 5861 5861 5861 5861 5861 5860 5860 5860 5860 5860 5860
5864 5863 5864 5863 5863 5862 5862 5863 5863 5864 5864 5864 5864 5864 5864 5864 5864 5864 5864 5864 5864 5864 5864 5864 5864 5864 5863 5863 5863 5862 5862 5862 5861 5861 5860 5860 5859 5859 5858 5858 5858 5858 5857 5857 5857 5857 5856 5856 5856
5865 5865 5865 5865 5864 5863 5863 5864 5864 5864 5865 5864 5864 5864 5864 5864 5863 5863 5863 5862 5862 5862 5862 5862 5862 5861 5861 5861 5860 5860 5859 5859 5858 5858 5857 5857 5856 5856 5856 5855 5855 5855 5854 5854 5854 5853 5853 5852 5852
5866 5866 5866 5865 5864 5864 5863 5864 5864 5864 5864 5864 5863 5863 5863 5862 5861 5861 5860 5860 5860 5860 5860 5859 5859 5859 5858 5858 5858 5857 5857 5856 5856 5855 5855 5854 5854 5853 5853 5852 5852 5851 5851 5850 5850 5849 5849 5848 5848
5867 5866 5866 5864 5864 5863 5863 5863 5863 5863 5862 5862 5861 5861 5861 5860 5859 5859 5858 5858 5858 5858 5857 5856 5856 5856 5856 5855 5855 5855 5854 5854 5853 5853 5852 5852 5851 5851 5850 5849 5849 5848 5847 5847 5846 5845 5845 5844 5843
5867 5866 5865 5864 5863 5862 5862 5861 5861 5860 5860 5860 5859 5858 5859 5857 5857 5856 5855 5855 5855 5855 5855 5854 5854 5853 5853 5853 5852 5852 5852 5851 5851 5850 5850 5849 5848 5848 5847 5846 5845 5844 5844 5843 5842 5841 5840 5839 5838
5865 5865 5863 5862 5862 5861 5860 5860 5859 5858 5858 5857 5856 5856 5857 5855 5854 5853 5853 5852 5852 5852 5852 5851 5851 5851 5850 5850 5850 5849 5849 5849 5848 5848 5847 5846 5846 5845 5844 5843 5842 5841 5840 5839 5838 5837 5835 5834 5833
5864 5864 5862 5861 5860 5859 5858 5858 5857 5856 5855 5854 5853 5853 5853 5852 5851 5850 5850 5849 5849 5849 5849 5849 5848 5848 5847 5847 5847 5847 5846 5846 5845 5845 5844 5843 5842 5842 5841 5840 5838 5837 5836 5835 5833 5832 5831 5829 5828
5863 5862 5861 5859 5858 5857 5856 5855 5854 5853 5852 5850 5850 5850 5849 5849 5848 5847 5847 5846 5846 5846 5846 5846 5845 5845 5845 5844 5844 5844 5843 5843 5842 5841 5841 5840 5839 5838 5837 5836 5835 5834 5832 5831 5829 5828 5826 5824 5823
5861 5860 5859 5857 5856 5854 5854 5852 5851 5850 5849 5848 5848 5847 5846 5845 5844 5844 5843 5843 5843 5843 5842 5842 5842 5842 5842 5841 5841 5840 5840 5839 5838 5838 5837 5836 5835 5834 5833 5832 5831 5829 5828 5826 5825 5823 5821 5819 5817
5859 5858 5856 5855 5854 5852 5851 5850 5849 5847 5846 5845 5844 5843 5843 5842 5841 5840 5840 5840 5839 5839 5839 5838 5838 5838 5838 5838 5837 5837 5836 5835 5835 5834 5833 5832 5831 5830 5828 5827 5825 5824 5822 5821 5819 5817 5815 5813 5811
5857 5855 5854 5853 5852 5850 5849 5847 5845 5844 5843 5842 5841 5840 5839 5839 5838 5837 5837 5836 5836 5835 5835 5835 5834 5834 5834 5834 5833 5833 5832 5831 5830 5829 5828 5827 5825 5824 5823 5821 5820 5818 5816 5814 5812 5811 5808 5806 5804
5854 5853 5851 5850 5849 5848 5847 5844 5841 5841 5840 5839 5837 5836 5835 5835 5834 5833 5832 5832 5832 5831 5831 5830 5830 5829 5829 5829 5828 5828 5827 5826 5825 5823 5822 5821 5819 5817 5816 5814 5813 5811 5809 5807 5805 5803 5800 5798 5796
5850 5850 5849 5847 5846 5845 5844 5841 5837 5837 5836 5835 5834 5833 5832 5831 5830 5829 5828 5828 5827 5827 5826 5825 5824 5824 5823 5823 5822 5821 5821 5820 5818 5817 5815 5813 5812 5810 5808 5807 5804 5802 5800 5798 5796 5793 5791 5789 5786
5847 5846 5845 5844 5843 5841 5841 5839 5833 5832 5832 5831 5830 5828 5827 5826 5825 5824 5824 5823 5822 5822 5821 5820 5819 5818 5817 5816 5815 5815 5814 5812 5811 5809 5807 5805 5803 5802 5800 5798 5796 5793 5791 5789 5786 5783 5781 5778 5775
5843 5842 5841 5839 5839 5837 5836 5834 5830 5827 5827 5826 5825 5823 5822 5821 5820 5819 5818 5818 5817 5816 5815 5814 5813 5812 5810 5809 5808 5807 5806 5805 5803 5801 5799 5797 5794 5792 5791 5789 5786 5783 5781 5778 5775 5772 5769 5767 5764
5838 5837 5836 5834 5833 5833 5830 5828 5826 5823 5822 5821 5819 5818 5816 5815 5814 5813 5813 5811 5810 5809 5808 5807 5806 5804 5802 5801 5800 5799 5798 5796 5794 5792 5790 5788 5785 5782 5780 5778 5776 5773 5770 5767 5763 5760 5757 5754 5751
5833 5832 5831 5830 5828 5828 5825 5822 5820 5819 5817 5816 5814 5812 5811 5809 5808 5806 5806 5805 5803 5802 5800 5799 5798 5796 5795 5793 5792 5790 5789 5787 5786 5784 5781 5778 5775 5772 5769 5767 5764 5761 5758 5755 5751 5747 5744 5740 5736
5828 5827 5827 5826 5824 5823 5821 5817 5815 5814 5812 5810 5809 5807 5805 5804 5802 5800 5798 5797 5796 5794 5792 5791 5790 5788 5787 5785 5783 5781 5780 5778 5776 5774 5771 5767 5764 5761 5758 5755 5752 5749 5745 5742 5738 5734 5730 5726 5722
5823 5822 5822 5821 5820 5818 5817 5814 5809 5808 5807 5805 5804 5802 5800 5798 5796 5794 5792 5790 5788 5786 5784 5782 5781 5779 5777 5775 5773 5772 5769 5768 5766 5763 5759 5756 5752 5750 5747 5743 5739 5735 5732 5728 5724 5720 5715 5711 5708
5820 5818 5817 5815 5814 5814 5812 5811 5806 5801 5801 5800 5798 5796 5794 5792 5790 5787 5785 5782 5780 5778 5776 5773 5771 5769 5767 5765 5762 5760 5758 5756 5754 5750 5747 5744 5740 5736 5733 5729 5725 5721 5717 5714 5709 5705 5701 5696 5692
5815 5814 5812 5811 5809 5809 5808 5806 5805 5798 5794 5792 5791 5790 5788 5786 5783 5780 5777 5775 5772 5769 5767 5764 5761 5759 5756 5754 5751 5748 5746 5744 5740 5736 5734 5730 5727 5723 5719 5715 5710 5706 5702 5698 5694 5689 5685 5681 5676
5810 5810 5808 5806 5805 5804 5803 5801 5800 5794 5790 5786 5784 5782 5781 5779 5776 5773 5769 5766 5763 5761 5758 5755 5751 5748 5745 5742 5739 5736 5733 5729 5726 5722 5719 5716 5712 5709 5705 5700 5695 5691 5687 5682 5678 5673 5669 5665 5660
5806 5805 5803 5800 5798 5797 5795 5794 5794 5789 5785 5781 5777 5775 5773 5771 5768 5765 5761 5758 5754 5751 5748 5744 5741 5737 5733 5730 5726 5723 5719 5715 5711 5708 5704 5700 5696 5693 5690 5684 5680 5675 5671 5666 5661 5657 5652 5648 5644
5801 5800 5798 5795 5793 5791 5790 5789 5789 5783 5778 5773 5770 5768 5766 5763 5759 5756 5752 5748 5744 5741 5737 5733 5729 5725 5721 5717 5713 5709 5705 5701 5697 5693 5688 5684 5681 5677 5673 5668 5664 5660 5655 5650 5645 5640 5636 5631 5627
5796 5794 5792 5789 5785 5783 5783 5782 5781 5776 5771 5766 5762 5759 5757 5754 5750 5746 5742 5738 5734 5729 5725 5721 5717 5713 5708 5704 5699 5695 5691 5686 5682 5678 5673 5669 5664 5660 5656 5652 5648 5644 5639 5634 5628 5624 5620 5614 5610
5790 5787 5785 5781 5778 5775 5775 5774 5772 5767 5763 5759 5754 5751 5748 5745 5741 5737 5732 5728 5723 5719 5714 5709 5705 5700 5695 5690 5686 5681 5676 5671 5667 5663 5658 5653 5649 5644 5639 5635 5631 5627 5623 5618 5612 5608 5603 5597 5593
5785 5783 5778 5775 5772 5768 5765 5769 5765 5760 5755 5752 5748 5744 5740 5736 5732 5727 5722 5718 5713 5708 5703 5698 5693 5688 5683 5677 5672 5667 5662 5657 5652 5647 5642 5638 5633 5628 5623 5619 5614 5610 5606 5601 5596 5591 5586 5581 5576
5776 5775 5772 5769 5766 5762 5758 5761 5756 5751 5746 5743 5740 5736 5731 5727 5722 5717 5713 5708 5702 5697 5692 5687 5681 5676 5670 5664 5658 5653 5647 5642 5637 5632 5627 5622 5618 5613 5608 5603 5598 5593 5589 5584 5579 5574 5569 5564 5559
Wind_Speed
8 7 7 6 6 5 6 4 3 3 3 2 2 2 2 1 1 1 1 1 2 3 5 6 7 8 9 10 11 12 13 13 14 14 14 13 13 13 13 13 14 14 14 14 15 16 16 17 18
10 9 9 8 7 8 7 5 3 3 2 2 1 1 1 0 2 2 2 3 4 5 7 8 9 10 11 12 12 13 13 14 14 14 13 13 13 13 13 13 13 14 14 15 15 16 17 18 19
9 8 8 7 7 7 6 4 4 3 1 0 1 2 3 3 4 5 5 6 7 8 9 10 11 12 12 13 13 13 14 14 14 13 13 13 13 13 13 13 14 14 14 15 15 16 17 18 19
6 6 5 4 4 5 4 2 1 1 2 3 4 5 6 7 7 9 9 9 10 10 11 12 13 13 13 14 14 14 14 13 13 13 12 12 12 13 13 14 14 15 15 16 16 17 18 18 19
3 3 2 2 2 1 1 2 3 5 7 8 9 9 9 11 10 12 12 12 12 13 13 14 14 14 14 14 14 14 13 13 12 12 12 12 13 13 14 15 16 17 17 18 18 19 19 20 20
3 4 4 4 4 5 6 6 8 9 11 12 13 13 12 15 14 14 15 14 15 15 15 15 14 15 14 14 14 13 13 12 12 12 12 13 14 15 16 16 17 18 19 20 20 21 22 22 22
5 7 8 8 9 9 10 10 12 13 14 15 15 16 14 17 16 16 16 16 16 16 15 16 15 15 15 14 14 13 13 12 12 12 13 14 15 15 17 18 19 20 21 21 22 23 24 25 25
8 9 11 11 11 13 14 13 15 16 16 17 18 17 14 17 18 17 18 17 17 17 16 16 16 15 15 14 14 13 13 12 12 13 13 14 15 16 17 18 19 21 22 23 24 24 25 26 27
10 11 12 13 13 13 15 14 15 16 17 17 19 17 15 17 19 18 18 18 18 17 17 16 16 16 15 15 14 14 13 13 13 14 14 15 16 17 18 19 20 21 22 24 24 25 26 27 28
11 12 13 13 13 13 15 15 16 15 17 18 17 16 16 17 18 18 19 18 18 18 17 17 16 16 16 15 15 14 14 14 14 15 16 16 18 18 20 21 22 23 24 25 26 26 27 28 29
12 13 13 14 14 14 14 15 16 16 17 17 15 16 17 18 17 18 18 18 18 18 18 18 17 17 17 16 16 16 16 16 16 17 18 19 20 21 22 23 24 25 26 27 28 29 29 30 31
13 14 14 14 14 15 15 15 16 18 18 17 16 18 16 18 18 19 18 18 19 19 20 19 19 19 18 18 18 19 19 19 19 20 21 22 23 24 25 26 27 28 29 30 31 32 32 33 33
14 14 15 15 15 15 15 17 17 19 18 18 18 19 18 18 19 19 19 20 20 21 21 21 21 21 21 21 21 22 22 22 23 23 24 25 26 27 28 29 30 31 32 33 34 35 35 36 37
16 16 17 17 17 16 15 18 20 19 19 19 20 20 20 20 20 21 21 22 22 22 23 23 23 24 24 24 24 25 25 26 26 27 28 29 30 31 32 33 34 35 36 37 37 38 39 39 40
18 18 19 19 19 18 17 18 23 22 20 20 21 22 22 22 22 23 24 24 24 24 25 25 26 27 27 28 28 29 29 29 30 32 33 33 34 35 36 36 38 39 39 40 41 42 42 43 44
21 21 21 21 20 20 20 18 26 26 23 22 22 23 23 24 24 25 26 26 27 27 27 28 29 29 30 31 32 32 33 33 34 36 37 38 39 39 40 40 41 42 43 44 45 45 46 47 47
23 23 23 25 23 21 22 21 25 28 27 25 25 25 25 25 26 27 28 28 29 30 30 30 31 32 34 35 35 36 36 37 38 39 40 41 42 43 43 44 45 45 46 47 48 49 50 50 51
25 25 25 26 26 24 24 24 26 27 27 27 26 26 26 26 27 28 29 30 31 32 32 33 34 35 37 38 38 39 40 40 42 43 43 44 45 47 47 47 48 49 49 50 51 52 53 54 54
25 25 24 25 25 24 24 26 26 26 26 26 26 26 27 27 27 29 29 30 32 33 34 35 37 38 39 40 41 42 43 44 44 44 45 46 47 49 51 51 51 52 53 53 54 56 56 57 57
23 23 23 23 24 22 22 25 27 26 26 26 26 26 26 27 27 28 29 30 32 33 35 37 38 39 41 42 43 44 45 45 45 46 47 49 51 52 53 54 54 55 56 56 57 58 59 59 60
21 22 22 22 21 21 21 22 27 26 25 26 26 26 27 27 27 28 29 30 31 33 35 37 38 40 41 43 44 45 46 47 47 48 50 52 54 54 55 56 58 58 59 59 59 60 61 62 62
19 21 21 22 21 20 22 21 25 29 28 27 27 27 27 28 28 29 30 30 31 33 34 36 38 40 42 44 45 46 47 48 49 51 53 54 55 56 57 58 59 60 61 61 62 63 63 64 65
20 21 22 23 23 22 22 22 22 28 30 29 29 29 29 29 30 31 32 32 33 34 35 37 39 41 43 44 46 48 49 50 52 54 55 55 57 58 59 60 61 62 63 64 64 65 66 66 66
21 22 24 25 25 25 22 22 23 27 29 32 34 33 33 32 33 34 35 35 36 36 37 39 40 42 44 46 47 49 50 52 54 55 56 57 58 59 60 61 63 64 65 65 66 67 67 67 67
23 25 27 28 28 28 28 27 26 29 32 34 36 36 35 35 35 35 36 37 38 39 40 41 42 44 46 47 49 50 52 54 55 56 58 59 60 60 61 63 64 65 66 66 67 67 67 67 66
24 26 28 30 31 31 30 29 28 30 32 34 36 37 36 36 35 36 37 39 40 41 42 44 45 47 48 50 51 53 54 55 56 58 59 60 61 62 63 64 65 65 65 66 66 66 66 66 66
27 28 30 32 34 35 33 31 30 30 32 34 37 38 38 37 37 38 39 40 41 42 43 45 46 48 50 51 53 54 56 57 58 59 61 61 62 63 64 64 65 65 64 64 64 64 65 66 65
29 31 32 34 36 37 35 34 32 32 34 36 38 39 39 39 40 40 40 41 42 43 44 46 47 48 50 51 53 55 56 57 58 59 60 62 63 64 64 64 64 63 63 63 64 65 65 65 65
29 30 32 33 34 37 37 33 32 33 35 36 37 38 39 39 39 40 41 42 43 44 45 46 47 49 50 51 53 54 55 56 57 58 59 60 61 62 62 63 64 64 64 64 64 64 64 65 65
31 30 30 32 33 34 36 34 32 34 36 37 37 38 39 39 40 41 42 43 44 45 45 46 47 49 51 52 53 54 55 57 57 58 59 59 59 60 61 61 62 63 63 63 64 63 63 64 65
Wind_Direction
91 99 105 114 121 126 97 79 78 90 103 116 132 143 146 142 155 234 233 236 263 279 283 285 286 287 287 287 288 289 290 291 291 292 292 293 293 294 294 293 292 291 290 288 287 285 283 282 280
89 94 99 104 114 108 94 96 96 94 102 115 130 167 203 216 265 271 269 272 277 281 284 286 287 288 288 288 288 289 290 291 291 292 292 293 294 295 295 295 294 293 292 290 288 287 285 283 281
85 88 94 97 99 91 95 98 97 102 103 245 265 276 281 282 280 281 280 281 282 283 285 286 287 287 287 287 288 289 290 290 291 292 293 294 296 297 299 299 298 298 296 294 292 290 289 287 284
77 78 86 91 87 90 98 96 86 278 279 278 277 276 279 279 278 280 280 280 281 282 282 283 284 284 285 286 287 288 288 289 290 292 294 297 298 300 302 302 302 301 301 300 298 296 294 292 290
55 45 39 46 22 14 314 273 274 275 277 279 280 278 279 279 277 278 278 278 279 279 279 280 280 281 282 284 285 286 287 288 291 294 297 299 302 304 304 304 303 303 302 301 301 299 298 296 295
349 338 323 317 308 300 290 285 282 281 281 280 280 280 280 278 278 278 278 277 278 278 278 278 278 279 280 281 283 284 285 288 292 294 298 301 304 305 306 305 305 304 304 303 302 300 299 298 296
317 316 311 307 303 299 293 292 287 284 282 281 279 279 280 279 279 278 278 278 277 277 275 275 275 277 278 279 280 282 284 288 291 296 300 303 306 307 308 308 308 308 307 306 304 302 300 299 297
310 309 306 305 302 297 296 294 287 286 283 282 281 280 280 275 279 278 277 277 277 275 273 272 274 274 275 277 279 281 283 287 291 297 301 305 307 309 310 310 310 310 309 308 307 305 303 301 299
311 309 306 307 305 300 299 296 290 288 286 283 282 284 280 275 278 278 277 277 276 274 273 272 272 272 273 276 277 280 283 287 292 298 302 305 307 308 309 310 310 310 310 310 309 307 305 303 301
312 312 310 310 309 306 302 299 294 289 288 287 286 286 281 278 277 278 278 277 275 273 272 270 269 270 273 274 276 279 283 287 292 296 299 301 303 305 306 307 308 308 309 309 309 308 307 305 303
312 313 315 315 314 312 307 302 297 292 287 290 291 282 279 279 278 277 277 276 274 272 271 269 268 269 271 273 275 279 282 286 289 292 294 297 298 300 301 302 303 304 304 305 306 306 306 306 305
310 314 317 317 317 315 312 305 298 294 292 294 287 281 278 279 279 278 276 274 272 271 269 270 271 271 272 273 275 278 281 283 286 289 291 293 294 296 297 298 299 300 300 301 301 302 303 303 303
308 311 313 315 316 316 314 307 300 294 296 293 286 284 283 279 278 276 274 271 270 269 270 271 272 272 272 273 274 276 279 281 283 286 288 290 292 293 294 295 297 298 298 298 298 298 299 299 300
303 306 308 311 313 315 314 307 302 298 297 293 289 285 284 280 276 275 273 271 270 270 270 271 271 271 272 273 274 276 277 279 282 284 286 287 289 290 292 293 295 295 296 297 297 296 296 297 297
298 301 304 307 310 312 312 307 301 301 300 297 293 289 286 283 279 276 274 273 272 270 271 271 271 272 273 273 274 276 277 279 281 282 284 285 287 288 290 291 292 293 294 295 295 295 295 295 295
294 298 300 300 304 309 309 307 301 303 304 301 296 292 289 285 282 279 277 276 275 273 272 272 272 273 273 273 274 275 277 278 279 281 282 284 286 287 288 289 291 292 293 294 294 294 294 295 295
291 295 298 300 302 306 305 302 299 303 305 303 299 295 291 287 284 281 280 279 278 276 274 273 272 271 272 273 274 275 276 277 278 280 281 283 285 286 287 288 289 291 292 293 293 293 294 294 294
292 296 298 300 302 304 303 300 298 300 302 302 300 297 294 291 288 285 283 281 279 277 276 273 272 272 273 274 275 276 276 277 278 280 282 283 284 285 287 288 289 290 291 292 292 293 293 293 293
292 295 297 299 301 303 303 301 300 301 302 302 302 301 298 296 293 290 287 284 282 280 278 276 275 275 276 277 277 277 278 279 280 281 282 283 283 285 286 288 289 290 290 291 292 292 292 293 293
295 296 298 299 301 303 304 303 302 302 304 304 304 303 302 301 298 295 292 289 286 283 281 280 279 279 279 279 279 280 280 281 282 282 282 282 282 284 286 288 288 289 290 291 291 291 292 292 292
299 300 301 302 303 306 306 306 304 303 304 305 305 305 303 302 301 299 296 292 289 287 285 284 283 282 282 281 282 282 282 282 282 281 281 282 284 285 286 287 288 289 289 290 291 291 291 292 291
302 303 305 306 306 309 309 311 310 308 308 307 306 306 305 304 303 301 298 295 291 289 286 284 284 283 283 282 282 282 281 282 282 281 282 283 284 284 285 286 287 288 289 290 290 291 291 291 292
304 306 307 308 309 311 310 310 313 308 309 308 307 306 306 306 304 302 299 296 293 290 287 286 284 283 283 282 282 282 282 282 281 281 282 282 283 284 285 286 286 287 288 289 290 290 290 291 292
306 307 307 307 307 307 309 312 317 311 310 308 306 306 307 306 304 302 299 296 293 291 289 287 286 284 283 283 282 282 282 281 281 282 282 282 283 284 284 285 285 286 287 288 289 290 291 292 292
306 307 308 308 312 313 314 316 318 312 309 306 305 306 307 306 303 300 298 295 294 292 290 289 287 286 285 284 283 282 282 281 282 282 282 282 283 283 284 284 285 286 287 288 289 290 291 292 292
305 307 308 309 310 309 309 311 314 310 306 304 304 305 306 306 305 302 300 297 296 294 292 290 289 287 286 284 284 283 283 283 282 282 282 283 283 284 284 284 285 286 287 288 289 290 291 292 293
304 304 305 305 306 306 308 309 310 310 307 306 306 307 309 309 308 306 303 301 299 297 295 293 291 289 288 286 285 284 284 283 283 283 283 283 283 284 284 285 286 286 286 287 289 290 291 292 293
301 303 304 305 306 307 309 312 315 314 310 309 308 310 311 311 310 307 305 302 300 299 297 295 293 292 290 289 287 286 285 285 284 284 284 284 284 284 285 285 286 287 287 287 288 289 290 291 293
298 299 301 302 303 305 307 313 316 311 309 308 309 312 312 312 311 309 307 306 304 303 301 299 297 295 293 292 290 289 287 287 286 285 285 284 284 285 285 286 286 287 287 288 288 289 290 291 292
299 300 301 302 303 305 307 314 315 312 311 311 315 316 315 314 314 313 311 310 309 307 305 303 301 299 297 295 293 291 289 287 286 285 285 284 285 285 285 285 286 287 287 288 288 289 290 291 292